[[{"header":{"parameterUnit":"m.s-1","parameterCategory":1,"la1":30.2991,"la2":30.254,"lo1":-89.0895,"lo2":-89.0444,"dy":0.0017,"dx":0.0017,"nx":28,"ny":28,"refTime":"2023-10-25T03:00:00:Z","depth":0,"parameterNumber":2,"parameterNumberName":"U-component_of_WINDS"},"data":[0,0,0,0,0,0,0,0,0,0,0,0,0,0,0,0,0,0,0,0,0,0,0,0,0,0,0,0,0,0,0,0,0,0,0,0,0,0,0,0,0,0,0,0,0,0,0,0,0,0,0,0,0,0,0,0,0,0,-5.2991,-5.2992,0,-5.3099,-5.31,-5.3101,-5.2987,-5.2983,-5.2978,-5.2974,-5.3084,-5.3091,-5.3098,0,0,0,0,0,0,0,0,0,0,0,0,0,-5.2688,-5.2694,-5.2991,-5.2992,-5.2994,-5.3098,-5.31,-5.3101,-5.2988,-5.2983,-5.2977,-5.2972,-5.3082,-5.309,-5.3099,0,0,0,0,0,0,0,0,0,0,0,0,0,-5.281,-5.2696,-5.2991,-5.295,-5.2947,-5.3098,-5.31,-5.3102,-5.2989,-5.2982,-5.2976,-5.297,-5.3079,-5.3089,-5.31,-5.3297,0,0,-5.3132,-5.3136,0,0,0,0,0,0,0,0,-5.2803,-5.2821,-5.2954,-5.2953,-5.295,-5.3023,-5.3033,-5.3167,-5.2991,-5.2973,-5.2974,-5.2966,-5.3069,-5.308,-5.3115,-5.3302,-5.3306,-5.3133,-5.3139,-5.3144,-5.3147,0,0,0,0,0,0,0,-5.2795,-5.2816,-5.3033,-5.2956,-5.2954,-5.2926,-5.2936,-5.3058,-5.3057,-5.2974,-5.2966,-5.298,-5.3067,-5.3105,-5.3116,-5.3308,-5.3133,-5.3142,-5.3148,-5.3153,-5.3664,-5.3671,0,0,0,0,0,0,-5.2791,-5.281,-5.303,-5.3037,-5.2859,-5.2937,-5.2948,-5.3006,-5.3055,-5.3056,-5.2986,-5.2975,-5.309,-5.3104,-5.312,-5.3355,-5.3144,-5.3154,-5.316,-5.3657,-5.3666,-5.3674,0,0,0,0,0,0,-5.2785,-5.2812,-5.3026,-5.2921,-5.2946,-5.2949,-5.3015,-5.3012,-5.3049,-5.3064,-5.3063,-5.3025,-5.3085,-5.3105,-5.3254,-5.3357,-5.3158,-5.3168,-5.3648,-5.366,-5.367,-5.3825,0,0,0,0,0,0,-5.2777,-5.281,-5.2884,-5.2924,-5.2952,-5.3158,-5.3021,-5.3018,-5.3068,-5.3054,-5.3101,-5.3102,-5.3082,-5.3239,-5.3264,-5.3368,-5.3176,-5.3639,-5.3653,-5.3666,-5.3811,-5.384,-5.3865,0,0,0,0,0,-5.2766,-5.2923,-5.2889,-5.2916,-5.3045,-5.3164,-5.318,-5.3154,-5.3077,-5.3152,-5.3162,-5.31,-5.3342,-5.3255,-5.3283,-5.3391,-5.3632,-5.3649,-5.3665,-5.3799,-5.3834,-5.3864,0,0,0,0,0,0,-5.2895,-5.2928,-5.289,-5.3064,-5.3113,-5.3145,-5.3238,-5.3193,-5.3263,-5.3248,-5.3212,-5.3223,-5.3382,-5.3401,-5.3304,-5.3585,-5.3474,-5.3497,-5.3566,-5.36,-5.3627,-5.3619,-5.3185,0,0,0,0,0,-5.2945,-5.3038,-5.3061,-5.3213,-5.324,-5.3236,-5.3286,-5.3262,-5.331,-5.333,-5.335,-5.34,-5.3487,-5.3544,-5.3625,-5.3813,-5.3822,-5.3902,-5.3929,-5.3951,-5.3971,-5.4073,-5.4109,-5.3727,-5.3727,-5.3727,0,0,-5.3046,-5.3075,-5.3137,-5.324,-5.3274,-5.3373,-5.3253,-5.3362,-5.3435,-5.3346,-5.3488,-5.3506,-5.3559,-5.3729,-5.3804,-5.3749,-5.4079,-5.3972,-5.3989,-5.3997,-5.4094,-5.413,-5.4162,-5.3738,-5.3736,-5.3735,0,0,-5.3282,-5.3314,-5.3444,-5.3482,-5.3536,-5.3533,-5.3564,-5.3605,-5.3613,-5.3755,-5.3691,-5.3778,-5.3928,-5.3969,-5.4009,-5.4264,-5.4211,-5.4291,-5.4433,-5.4533,-5.4563,-5.459,-5.4681,-5.4715,-5.4311,-5.4312,-5.4312,0,-5.3401,-5.3547,-5.3517,-5.3631,-5.3679,-5.3605,-5.3738,-5.3775,-5.3854,-5.3889,-5.3826,-5.4015,-5.4045,-5.4224,-5.4287,-5.4322,-5.4357,-5.4285,-5.4561,-5.4588,-5.4612,-5.4699,-5.4733,-5.4321,-5.432,-5.4319,-5.4318,0,-5.3692,-5.3794,-5.3894,-5.3972,-5.4031,-5.4154,-5.4143,-5.4207,-5.4178,-5.4182,-5.4329,-5.4363,-5.445,-5.4491,-5.4464,-5.4668,-5.4632,-5.4567,-5.4454,-5.4658,-5.4739,-5.4772,-5.4335,-5.4331,-5.4328,-5.4326,0,0,-5.401,-5.4072,-5.4109,-5.4145,-5.42,-5.4279,-5.4399,-5.4485,-5.4541,-5.4598,-5.4699,-5.4829,-5.4769,-5.4815,-5.4792,-5.4881,-5.5082,-5.4804,-5.4805,-5.4855,-5.531,-5.5359,-5.5398,-5.5047,-5.5054,-5.5058,-5.5305,0,-5.4248,-5.4457,-5.4434,-5.4633,-5.4728,-5.4661,-5.4766,-5.4812,-5.4819,-5.4901,-5.4909,-5.5002,-5.4916,-5.4943,-5.5028,-5.504,-5.5173,-5.5021,-5.5141,-5.5146,-5.513,-5.544,-5.5492,-5.5723,-5.5337,-5.5342,-5.5346,0,-5.4552,-5.4621,-5.4831,-5.4874,-5.4913,-5.5007,-5.5085,-5.5165,-5.5216,-5.5215,-5.5269,-5.5231,-5.5353,-5.524,-5.5408,-5.5305,-5.5353,-5.5367,-5.5375,-5.5385,-5.5258,-5.5458,-5.5796,-5.5831,-5.5396,-5.5392,-5.5388,0,-5.4764,-5.491,-5.5054,-5.5086,-5.514,-5.5209,-5.5234,-5.5279,-5.5333,-5.5402,-5.5436,-5.5518,-5.5563,-5.5628,-5.5614,-5.5532,-5.5786,-5.5671,-5.5789,-5.579,-5.5845,-5.5842,-5.6195,-5.5877,-5.5876,-5.5876,-5.5875,0,-5.5032,-5.5162,-5.515,-5.5239,-5.5384,-5.5358,-5.5502,-5.5519,-5.556,-5.5652,-5.5598,-5.5685,-5.5662,-5.5748,-5.5738,-5.588,-5.59,-5.5903,-5.5899,-5.5908,-5.5908,-5.5938,-5.5922,-5.5885,-5.5883,-5.5881,-5.5879,0,-5.5292,-5.5289,-5.5442,-5.5482,-5.5495,-5.56,-5.5634,-5.5718,-5.5722,-5.5838,-5.5864,-5.5871,-5.597,-5.5963,-5.6074,-5.6067,-5.6243,-5.6219,-5.6225,-5.622,-5.6339,-5.6328,-5.6724,-5.6775,-5.6424,-5.6427,-5.643,0,-5.5463,-5.5562,-5.5613,-5.567,-5.5701,-5.5795,-5.585,-5.5829,-5.5888,-5.5956,-5.6033,-5.6127,-5.6201,-5.6364,-5.6378,-5.6464,-5.6442,-5.6576,-5.6455,-5.6461,-5.6445,-5.6439,-5.6449,-5.6599,-5.6603,-5.6606,-5.6609,0,-5.5766,-5.576,-5.5842,-5.5925,-5.5992,-5.6056,-5.6114,-5.6164,-5.6149,-5.622,-5.6321,-5.6379,-5.6494,-5.6589,-5.6671,-5.6697,-5.6652,-5.6647,-5.6679,-5.6689,-5.6688,-5.6691,-5.629,-5.6638,-5.6635,-5.6633,-5.6631,-5.663,-5.5987,-5.6072,-5.6122,-5.6216,-5.6258,-5.6314,-5.6395,-5.641,-5.6494,-5.6587,-5.6569,-5.6684,-5.6735,-5.684,-5.6876,-5.6965,-5.6917,-5.6963,-5.6975,-5.6986,-5.7,-5.6675,-5.698,-5.6979,-5.6978,-5.6977,-5.6977,0,-5.6287,-5.6317,-5.6403,-5.6487,-5.6561,-5.6512,-5.6575,-5.664,-5.6741,-5.6793,-5.6868,-5.6985,-5.7078,-5.7101,-5.719,-5.7258,-5.7239,-5.7282,-5.7276,-5.7283,-5.7038,-5.7001,-5.7295,-5.7295,-5.7295,-5.7295,-5.7295,-5.7295,-5.6452,-5.6595,-5.6596,-5.676,-5.6788,-5.69,-5.694,-5.6992,-5.7033,-5.7167,-5.7244,-5.7259,-5.73,-5.7392,-5.7475,-5.748,-5.7515,-5.7566,-5.7563,-5.7332,-5.73,-5.727,-5.7236,-5.7574,-5.7575,-5.7801,-5.7803,-5.7804]},{"header":{"parameterUnit":"m.s-1","parameterCategory":1,"la1":30.2991,"la2":30.254,"lo1":-89.0895,"lo2":-89.0444,"dy":0.0017,"dx":0.0017,"nx":28,"ny":28,"refTime":"2023-10-25T03:00:00:Z","depth":0,"parameterNumber":3,"parameterNumberName":"V-component_of_WINDS"},"data":[0,0,0,0,0,0,0,0,0,0,0,0,0,0,0,0,0,0,0,0,0,0,0,0,0,0,0,0,0,0,0,0,0,0,0,0,0,0,0,0,0,0,0,0,0,0,0,0,0,0,0,0,0,0,0,0,0,0,-0.8619,-0.8619,0,-0.8533,-0.8532,-0.8531,-0.8516,-0.8517,-0.8518,-0.8519,-0.842,-0.8417,-0.8413,0,0,0,0,0,0,0,0,0,0,0,0,0,-0.8761,-0.8759,-0.862,-0.8619,-0.8617,-0.8533,-0.8532,-0.8531,-0.8516,-0.8517,-0.8518,-0.8519,-0.8421,-0.8417,-0.8413,0,0,0,0,0,0,0,0,0,0,0,0,0,-0.8689,-0.8758,-0.862,-0.86,-0.8598,-0.8533,-0.8532,-0.853,-0.8516,-0.8517,-0.8518,-0.8519,-0.8422,-0.8417,-0.8412,-0.8359,0,0,-0.8397,-0.8395,0,0,0,0,0,0,0,0,-0.8693,-0.8684,-0.8604,-0.8601,-0.8598,-0.8537,-0.8546,-0.8472,-0.8516,-0.8547,-0.8519,-0.852,-0.8457,-0.8449,-0.843,-0.8354,-0.835,-0.8397,-0.8394,-0.8392,-0.839,0,0,0,0,0,0,0,-0.8698,-0.8688,-0.8585,-0.8603,-0.8599,-0.8592,-0.8583,-0.8532,-0.8496,-0.8544,-0.8543,-0.8533,-0.8456,-0.8435,-0.8428,-0.8348,-0.8397,-0.8392,-0.8389,-0.8387,-0.8218,-0.8217,0,0,0,0,0,0,-0.8708,-0.8692,-0.8588,-0.8582,-0.865,-0.8589,-0.8579,-0.8555,-0.8497,-0.8489,-0.8532,-0.8533,-0.8443,-0.8434,-0.8424,-0.8354,-0.8392,-0.8387,-0.8384,-0.8219,-0.8218,-0.8216,0,0,0,0,0,0,-0.8711,-0.8699,-0.8591,-0.8637,-0.8623,-0.8585,-0.8559,-0.8553,-0.8532,-0.8488,-0.8481,-0.8519,-0.8444,-0.8431,-0.8375,-0.835,-0.8385,-0.838,-0.8221,-0.8219,-0.8217,-0.8215,0,0,0,0,0,0,-0.8716,-0.87,-0.8682,-0.8637,-0.862,-0.8547,-0.8557,-0.855,-0.8525,-0.8525,-0.8473,-0.8466,-0.8444,-0.8382,-0.837,-0.8344,-0.8376,-0.8223,-0.822,-0.8218,-0.8217,-0.8213,-0.821,0,0,0,0,0,-0.8721,-0.8684,-0.8682,-0.8669,-0.8598,-0.8545,-0.8535,-0.8514,-0.8523,-0.8503,-0.8473,-0.8467,-0.8356,-0.8377,-0.8362,-0.8335,-0.8224,-0.8221,-0.8218,-0.8219,-0.8214,-0.821,0,0,0,0,0,0,-0.8725,-0.8678,-0.8675,-0.8623,-0.8589,-0.8543,-0.8517,-0.851,-0.847,-0.8471,-0.8443,-0.8431,-0.8375,-0.8349,-0.8373,-0.8277,-0.829,-0.8284,-0.8296,-0.8291,-0.8287,-0.8293,-0.8372,0,0,0,0,0,-0.8721,-0.8686,-0.8645,-0.8603,-0.8586,-0.8555,-0.8531,-0.8517,-0.8479,-0.8464,-0.8431,-0.8391,-0.8346,-0.8317,-0.8274,-0.8214,-0.8199,-0.8187,-0.8184,-0.8181,-0.8175,-0.8136,-0.8129,-0.8205,-0.8205,-0.8205,0,0,-0.871,-0.868,-0.8659,-0.8603,-0.8575,-0.8535,-0.8542,-0.8501,-0.847,-0.8456,-0.8401,-0.8375,-0.8328,-0.8268,-0.824,-0.8245,-0.8151,-0.8177,-0.8175,-0.817,-0.8132,-0.8125,-0.8118,-0.8203,-0.8203,-0.8203,0,0,-0.867,-0.8645,-0.8606,-0.8578,-0.8536,-0.8515,-0.8505,-0.846,-0.8443,-0.8388,-0.8376,-0.8337,-0.8262,-0.8228,-0.8201,-0.8146,-0.8136,-0.8132,-0.8111,-0.8074,-0.8068,-0.8062,-0.8038,-0.8031,-0.8127,-0.8127,-0.8127,0,-0.866,-0.8604,-0.8586,-0.8545,-0.8518,-0.8507,-0.8464,-0.8437,-0.8382,-0.8362,-0.8369,-0.8273,-0.8241,-0.8171,-0.8158,-0.8138,-0.8122,-0.8137,-0.8071,-0.8065,-0.806,-0.8036,-0.8028,-0.8126,-0.8126,-0.8126,-0.8126,0,-0.8593,-0.8554,-0.8526,-0.8476,-0.8447,-0.8405,-0.8376,-0.8348,-0.8337,-0.8313,-0.8254,-0.8215,-0.8162,-0.8145,-0.8133,-0.8072,-0.8076,-0.8078,-0.809,-0.8052,-0.803,-0.8021,-0.8126,-0.8126,-0.8126,-0.8126,0,0,-0.8552,-0.8492,-0.8482,-0.8458,-0.841,-0.8377,-0.8332,-0.8284,-0.8258,-0.822,-0.8178,-0.8115,-0.8115,-0.8085,-0.8068,-0.8036,-0.7988,-0.8041,-0.8039,-0.8029,-0.7913,-0.791,-0.79,-0.7983,-0.7982,-0.798,-0.7916,0,-0.8504,-0.8429,-0.841,-0.8343,-0.8304,-0.8292,-0.8252,-0.8216,-0.8192,-0.8152,-0.8125,-0.8078,-0.8085,-0.8066,-0.8034,-0.8001,-0.7964,-0.8006,-0.7939,-0.7937,-0.7949,-0.7889,-0.7886,-0.7827,-0.7907,-0.7906,-0.7905,0,-0.8437,-0.84,-0.833,-0.8285,-0.8267,-0.8233,-0.8185,-0.8148,-0.8105,-0.8089,-0.8055,-0.804,-0.7988,-0.8005,-0.793,-0.7959,-0.7931,-0.791,-0.7907,-0.7897,-0.7917,-0.7874,-0.7808,-0.7798,-0.7891,-0.7892,-0.7893,0,-0.841,-0.8342,-0.8291,-0.8271,-0.8217,-0.8192,-0.8168,-0.8127,-0.8097,-0.8054,-0.8034,-0.7984,-0.7955,-0.7915,-0.7886,-0.7901,-0.7811,-0.7827,-0.7792,-0.7793,-0.7772,-0.7773,-0.7697,-0.776,-0.776,-0.776,-0.776,0,-0.8356,-0.8313,-0.8278,-0.8246,-0.8195,-0.8172,-0.8122,-0.8096,-0.8059,-0.8018,-0.8004,-0.7965,-0.7931,-0.7886,-0.7863,-0.7801,-0.7789,-0.7772,-0.7765,-0.7771,-0.7773,-0.7749,-0.7751,-0.7758,-0.7758,-0.7759,-0.7759,0,-0.8316,-0.8292,-0.8234,-0.8189,-0.8176,-0.814,-0.8099,-0.8065,-0.8041,-0.7989,-0.7976,-0.7936,-0.7882,-0.785,-0.7781,-0.7765,-0.7696,-0.7693,-0.7711,-0.7708,-0.7674,-0.7676,-0.7577,-0.7561,-0.7638,-0.7637,-0.7637,0,-0.8282,-0.8249,-0.82,-0.8173,-0.815,-0.8107,-0.8077,-0.8052,-0.8021,-0.7968,-0.7938,-0.7885,-0.784,-0.7753,-0.7715,-0.7661,-0.7654,-0.7623,-0.7646,-0.7651,-0.7648,-0.7649,-0.7643,-0.7618,-0.7618,-0.7617,-0.7617,0,-0.8222,-0.8211,-0.8171,-0.8126,-0.8091,-0.8054,-0.8015,-0.7993,-0.7961,-0.7926,-0.7872,-0.7838,-0.7768,-0.7712,-0.7654,-0.7624,-0.7612,-0.7611,-0.7599,-0.7602,-0.7613,-0.7602,-0.7697,-0.7612,-0.7613,-0.7613,-0.7613,-0.7613,-0.8181,-0.8149,-0.811,-0.8064,-0.8034,-0.7998,-0.7963,-0.7935,-0.7891,-0.7834,-0.7821,-0.7763,-0.7716,-0.7638,-0.7607,-0.7557,-0.7562,-0.7546,-0.7541,-0.7537,-0.7533,-0.7624,-0.7547,-0.7547,-0.7547,-0.7547,-0.7547,0,-0.8117,-0.8091,-0.805,-0.7998,-0.796,-0.7958,-0.7915,-0.7882,-0.7833,-0.7792,-0.7749,-0.7684,-0.7629,-0.7587,-0.753,-0.7498,-0.7491,-0.7483,-0.7483,-0.7475,-0.7535,-0.7549,-0.749,-0.749,-0.749,-0.749,-0.749,-0.749,-0.8079,-0.8024,-0.8008,-0.7936,-0.7909,-0.7855,-0.783,-0.7795,-0.7762,-0.7692,-0.7648,-0.7622,-0.7578,-0.7518,-0.7465,-0.7454,-0.7431,-0.7423,-0.741,-0.7466,-0.7472,-0.7478,-0.7491,-0.742,-0.742,-0.7354,-0.7353,-0.7353]}]]